TimeEET,TemperatureF,Dew PointF,Humidity,Sea Level PressureIn,VisibilityMPH,Wind Direction,Wind SpeedMPH,Gust SpeedMPH,PrecipitationIn,Events,Conditions,WindDirDegrees,DateUTC
12:00 AM,82.4,66.2,58,29.71,-9999.0,North,6.9,-,N/A,,Clear,350,2013-07-28 22:00:00
1:00 AM,80.6,64.4,58,29.71,-9999.0,North,4.6,-,N/A,,Clear,360,2013-07-28 23:00:00
2:00 AM,81,67,54,29.73,6,Calm,Calm,,,,,,2013-07-29 00:00:00
2:00 AM,80.6,68.0,65,29.71,-9999.0,Calm,Calm,-,N/A,,Clear,0,2013-07-29 00:00:00
3:00 AM,77.0,69.8,78,29.71,-9999.0,Calm,Calm,-,N/A,,Clear,0,2013-07-29 01:00:00
4:00 AM,75.2,62.6,65,29.74,-9999.0,West,4.6,-,N/A,,Clear,280,2013-07-29 02:00:00
5:00 AM,75.2,53.6,47,29.77,-9999.0,WNW,6.9,-,N/A,,Clear,300,2013-07-29 03:00:00
6:00 AM,78.8,50.0,36,29.77,-9999.0,WNW,6.9,-,N/A,,Clear,300,2013-07-29 04:00:00
7:00 AM,86.0,55.4,35,29.80,-9999.0,NNW,8.1,-,N/A,,Clear,330,2013-07-29 05:00:00
8:00 AM,90,53,18,29.80,6,NNW,11.5,,,,Clear,340,2013-07-29 06:00:00
8:00 AM,89.6,51.8,27,29.80,-9999.0,NNW,11.5,-,N/A,,Clear,340,2013-07-29 06:00:00
9:00 AM,93.2,51.8,24,29.80,-9999.0,North,17.3,-,N/A,,Clear,350,2013-07-29 07:00:00
10:00 AM,95.0,53.6,25,29.83,-9999.0,North,9.2,-,N/A,,Clear,10,2013-07-29 08:00:00
11:00 AM,96.8,53.6,23,29.77,-9999.0,NNE,4.6,-,N/A,,Clear,20,2013-07-29 09:00:00
12:00 PM,104.0,57.2,21,29.77,-9999.0,NE,3.5,-,N/A,,Clear,50,2013-07-29 10:00:00
1:00 PM,107.6,53.6,17,29.74,-9999.0,ENE,6.9,-,N/A,,Clear,70,2013-07-29 11:00:00
2:00 PM,108,53,9,29.73,6,ESE,4.6,,,,,110,2013-07-29 12:00:00
2:00 PM,107.6,53.6,17,29.71,-9999.0,ESE,4.6,-,N/A,,Clear,110,2013-07-29 12:00:00
3:00 PM,104.0,60.8,24,29.71,-9999.0,SE,6.9,-,N/A,,Clear,130,2013-07-29 13:00:00
4:00 PM,100.4,55.4,22,29.71,-9999.0,SSE,5.8,-,N/A,,Clear,150,2013-07-29 14:00:00
5:00 PM,102.2,53.6,20,29.68,-9999.0,SSE,3.5,-,N/A,,Clear,150,2013-07-29 15:00:00
6:00 PM,96.8,51.8,22,29.68,-9999.0,SE,3.5,-,N/A,,Clear,140,2013-07-29 16:00:00
7:00 PM,95.0,50.0,22,29.68,-9999.0,SE,10.4,-,N/A,,Clear,130,2013-07-29 17:00:00
8:00 PM,90,53,19,29.72,6,Calm,Calm,,,,,,2013-07-29 18:00:00
8:00 PM,89.6,53.6,29,29.71,-9999.0,Calm,Calm,-,N/A,,Clear,0,2013-07-29 18:00:00
9:00 PM,87.8,55.4,33,29.71,-9999.0,Calm,Calm,-,N/A,,Clear,0,2013-07-29 19:00:00
10:00 PM,86.0,53.6,33,29.74,-9999.0,North,4.6,-,N/A,,Clear,10,2013-07-29 20:00:00
11:00 PM,86.0,53.6,33,29.71,-9999.0,Calm,Calm,-,N/A,,Clear,0,2013-07-29 21:00:00